Main page
METAR-TAF:

METAR-TAF

Airports :

Fremont Municipal Airport

Fremont, Nebraska, United States

latitude: 41-27N, longitude: 096-31W, elevation: 1243 ft

Current weather observation

The report was made 6 minutes ago, at 16:15 UTC
Wind 21 mph from the North with gusts up to 29 mph
Temperature 77°F
Humidity 50%
Pressure 30.02 in. Hg
Visibility: 10 miles
Broken clouds at a height of 11000 ft

METAR: KFET 281615Z AUTO 36018G25KT 10SM BKN110 25/14 A3002 RMK AO2 T02450138

Time: 11:21 (16:21 UTC)


TAF: missing

Weather observations and forecasts of more than 4000 airports (METAR and TAF reports).

The available stations are represented by yellow and red dots on the map.

Hover mouse over dot to see the name of the station.

Then click to see weather observations and forecasts.

To change the map : click on the green buttons with a black cross to zoom in, on the green button with a dash to zoom out, or on the green arrows for adjacent maps.


METAR-TAF: